• MPC Preparation (Info)

  • MPEC 2005-S68 : 2005 SW9

    The following Minor Planet Electronic Circular may be linked-to from your own Web pages, but must not otherwise be redistributed electronically.

    A form allowing access to any MPEC is at the bottom of this page.


    Read MPEC 2005-S67 Read MPEC 2005-S69


    M.P.E.C. 2005-S68                                Issued 2005 Sept. 27, 20:43 UT
    
         The Minor Planet Electronic Circulars contain information on unusual
             minor planets and routine data on comets.  They are published
       on behalf of Commission 20 of the International Astronomical Union by the
              Minor Planet Center, Smithsonian Astrophysical Observatory,
                              Cambridge, MA 02138, U.S.A.
    
                      Supported in part by the Brinson Foundation
                 Prepared using the Tamkin Foundation Computer Network
    
                                  MPC@CFA.HARVARD.EDU
              URL http://cfa-www.harvard.edu/iau/mpc.html  ISSN 1523-6714
    
                                       2005 SW9
    
    Observations:
         K05S09W* C2005 09 25.15862 19 00 55.67 +73 33 45.1          19.3   ES068704
         K05S09W  C2005 09 25.16921 19 00 39.97 +73 34 23.9          19.3   ES068704
         K05S09W  C2005 09 25.17980 19 00 24.77 +73 35 01.1          19.2   ES068704
         K05S09W  C2005 09 25.19041 19 00 09.46 +73 35 38.3          19.3   ES068704
         K05S09W  C2005 09 25.20099 18 59 54.71 +73 36 16.7          19.6   ES068704
         K05S09W  C2005 09 26.27084 18 32 27.55 +74 37 06.4          19.9   ES068704
         K05S09W  C2005 09 26.28145 18 32 09.39 +74 37 40.8          19.2   ES068704
         K05S09W  C2005 09 26.29203 18 31 52.19 +74 38 12.5          19.5   ES068704
         K05S09W  C2005 09 26.30263 18 31 33.68 +74 38 42.5          19.5   ES068704
         K05S09W  C2005 09 27.74939 17 46 14.69 +75 41 21.9          18.5 R ES068461
         K05S09W  C2005 09 27.75078 17 46 11.70 +75 41 24.6                 ES068461
         K05S09W  C2005 09 27.75217 17 46 08.92 +75 41 27.1                 ES068461
         K05S09W  C2005 09 27.75967 17 45 52.70 +75 41 41.0                 ES068461
         K05S09W  C2005 09 27.83001 17 43 25.65 +75 43 50.2                 ES068J95
         K05S09W  C2005 09 27.83112 17 43 23.25 +75 43 52.3                 ES068J95
         K05S09W  C2005 09 27.83206 17 43 21.22 +75 43 53.9          18.6 R ES068J95
    
    Observer details:
    461 Szeged University, Piszkesteto Stn. (Konkoly).  Observer K. Sarneczky.
        0.60-m Schmidt + CCD.
    704 Lincoln Laboratory ETS, New Mexico.  Observers M. Bezpalko, L. Manguso,
        D. Torres, R. Kracke, A. Milner, H. Love.  Measurers J. Stuart, R. Sayer,
        J. Evans, J. Kommers.  1.0-m f/2.15 reflector + CCD.
    J95 Great Shefford.  Observer P. Birtwhistle.  0.40-m f/6.0 Schmidt-Cassegrain
        + CCD.
    
    Orbital elements:
    2005 SW9
    Epoch 2005 Aug. 18.0 TT = JDT 2453600.5                 MPC
    M 333.21034              (2000.0)            P               Q
    n   0.33122127     Peri.  194.37174     +0.48959250     -0.84921223
    a   2.0688257      Node   226.76000     +0.82441824     +0.52471897
    e   0.5875344      Incl.   15.75743     +0.28396084     -0.05923334
    P   2.98           H   19.6           G   0.15           U   9
    Residuals in seconds of arc
    050925 704  1.0+  0.5-    050926 704  0.9-  0.5-    050927 461  0.6-  0.2+
    050925 704  0.9-  0.4+    050926 704  1.7+  0.5+    050927 J95  0.2+  0.1-
    050925 704  0.6-  0.1-    050926 704  0.8-  0.2-    050927 J95  0.1+  0.0
    050925 704  0.7-  0.4-    050927 461  0.2-  0.0     050927 J95  0.0   0.0
    050925 704  1.5+  0.6+    050927 461  0.3-  0.1+
    050926 704 (0.0   4.0-)   050927 461  0.4+  0.1+
    
    Ephemeris:
    2005 SW9                 a,e,i = 2.07, 0.59, 16                  q = 0.8533
    Date    TT    R. A. (2000) Decl.     Delta      r     Elong.  Phase     V
    2005 09 27    18 11.05   +75 12.3    0.189    1.024    91.3    78.1    18.8
    2005 09 29    16 59.98   +76 06.5    0.180    1.010    87.5    82.3    18.8
    2005 10 01    15 39.44   +75 30.7    0.171    0.996    83.4    86.8    18.8
    2005 10 03    14 26.39   +73 08.7    0.164    0.983    79.0    91.6    18.9
    2005 10 05    13 30.69   +69 13.8    0.157    0.969    74.3    96.7    19.0
    2005 10 07    12 51.19   +64 10.3    0.153    0.957    69.6   101.8    19.1
    2005 10 09    12 23.32   +58 20.1    0.151    0.945    64.9   106.8    19.3
    2005 10 11    12 03.27   +52 01.6    0.150    0.934    60.4   111.5    19.6
    2005 10 13    11 48.50   +45 31.3    0.152    0.923    56.5   115.7    19.9
    2005 10 15    11 37.40   +39 03.9    0.155    0.913    53.2   119.0    20.1
    2005 10 17    11 28.96   +32 51.0    0.161    0.903    50.6   121.4    20.4
    
    Kyle E. Smalley              (C) Copyright 2005 MPC           M.P.E.C. 2005-S68
    

    Read MPEC 2005-S67 Read MPEC 2005-S69


    MPEC number:

    Enter an MPEC number in one of the following forms:

    • 1997-B01 (the full form)
    • J97B01 (the packed version of the full form)
    • B01 (the abbreviated form)